GFSSGP_700_temp_159.txt.gz
Temp
11 12 12 13 11 13 13 14 14 13 12 12 11 11 10 10 9 9 8 9 9 9 9 8 8 8 8 8 9 9 8 8 8 8 9 9 9 10 9 9 9 9 9 9 9 9 9 9 9
12 12 12 11 11 13 13 13 13 13 12 11 11 10 10 9 8 8 8 8 8 8 8 8 8 8 8 8 8 8 8 8 8 8 9 9 9 9 9 9 9 9 9 9 9 9 9 9 10
12 12 11 12 11 13 14 13 12 12 11 12 10 10 10 8 7 8 8 8 8 8 8 8 8 8 8 8 8 8 8 8 8 9 9 9 9 9 9 9 9 9 9 9 9 9 9 9 10
12 12 12 11 14 14 14 13 12 12 11 11 10 9 8 7 7 7 8 8 7 8 8 8 8 7 7 7 8 8 8 8 8 8 9 9 9 9 9 9 9 9 9 9 9 9 9 10 10
12 11 11 12 13 13 13 13 13 12 11 11 10 9 8 8 7 7 7 7 7 7 7 8 8 8 7 7 7 8 7 7 8 9 8 9 8 9 9 8 8 8 9 9 9 9 10 10 10
10 11 12 12 13 12 12 12 12 12 11 10 10 9 8 9 7 7 7 7 7 7 7 8 8 8 7 7 7 7 7 7 8 8 8 8 8 8 8 8 8 8 9 9 9 9 10 10 10
10 10 12 11 11 12 11 11 11 12 12 11 10 9 7 7 8 7 7 7 6 7 7 7 8 7 7 7 7 7 6 6 7 8 7 7 8 8 8 8 8 9 9 9 9 10 10 10 10
11 11 12 11 11 11 10 10 11 11 11 10 10 10 8 7 8 7 7 6 7 6 8 7 7 7 7 7 7 6 7 6 7 7 7 8 7 7 8 8 8 9 9 9 10 10 10 10 10
12 10 10 11 11 10 10 10 10 11 10 10 10 10 8 10 8 7 7 7 7 7 6 8 8 8 7 7 7 7 7 7 7 7 7 7 8 8 8 8 8 9 9 10 10 10 10 10 9
12 11 11 11 11 10 10 10 11 11 11 10 10 9 9 10 8 7 7 7 6 6 7 7 7 8 7 8 8 8 8 7 7 7 7 8 8 9 8 8 8 9 9 9 10 10 10 9 9
12 12 11 10 9 10 10 10 10 11 11 11 9 8 10 9 7 7 8 7 7 7 6 7 9 8 8 7 7 7 8 8 8 8 8 8 8 8 8 8 8 9 9 9 9 10 10 8 7
11 11 10 9 10 9 10 10 10 10 10 11 9 8 8 8 8 8 8 8 7 6 8 7 8 9 8 7 7 7 8 8 9 9 9 8 6 6 7 6 7 9 8 9 8 8 10 10 10
12 10 10 9 10 10 9 9 9 10 10 10 10 9 8 8 8 8 8 7 7 8 7 7 8 9 9 7 7 8 7 8 9 9 9 7 6 7 6 6 7 6 7 7 8 9 9 10 10
12 11 10 9 9 10 10 10 10 10 10 10 10 9 9 9 9 8 8 7 9 7 6 6 9 9 9 9 8 7 8 9 9 9 9 7 6 8 5 7 6 6 7 7 8 7 8 7 9
11 11 10 10 9 9 9 10 10 10 10 10 10 10 9 9 9 8 8 7 7 7 6 8 9 9 9 9 9 7 6 6 6 6 8 9 8 8 8 6 7 6 7 8 9 9 8 8 9
12 13 10 10 9 10 9 9 9 9 10 10 10 9 9 8 8 8 8 7 7 7 8 8 6 8 9 9 9 6 8 6 6 8 8 8 8 8 8 7 6 6 7 7 7 8 8 8 8
14 12 12 11 11 11 9 9 9 10 10 10 10 9 9 9 8 8 8 7 7 7 8 8 8 8 8 9 9 8 7 6 6 6 7 8 8 8 8 8 8 7 7 8 8 8 8 8 8
10 13 15 12 11 11 10 10 10 9 10 9 11 9 9 8 9 9 8 8 7 8 8 8 8 8 8 8 9 8 7 5 6 6 7 8 8 8 8 7 8 7 6 7 7 8 7 8 8
14 13 15 14 12 12 12 11 11 10 11 9 9 10 10 9 9 8 8 8 7 8 8 8 8 8 8 8 8 7 7 6 6 6 8 9 9 9 8 6 8 8 7 8 8 8 9 9 10
14 14 14 14 13 13 13 12 11 11 11 11 11 10 10 10 9 9 8 9 7 8 8 8 8 8 8 8 8 6 6 6 6 6 8 9 9 9 9 9 8 8 7 8 9 9 8 8 9
15 15 15 15 14 13 14 13 13 11 11 11 9 10 10 10 9 9 9 8 9 8 8 8 8 8 8 8 8 8 8 7 6 6 8 9 8 9 9 9 9 9 8 7 9 9 9 9 9
16 16 15 14 14 12 13 11 13 13 11 11 10 10 10 10 10 9 9 8 8 9 7 9 9 8 8 8 8 8 8 8 6 6 6 7 8 9 9 8 9 9 9 9 9 9 10 10 9
16 14 15 15 15 14 13 13 10 13 13 12 11 12 11 11 10 10 10 9 9 8 8 9 9 9 8 8 8 8 8 6 6 6 6 8 9 8 9 9 8 9 8 9 9 9 9 9 9
15 15 15 15 16 17 18 17 13 14 15 13 13 12 12 10 11 10 10 9 9 9 7 8 9 9 8 8 8 8 8 8 7 7 7 8 8 8 8 8 8 8 8 8 9 9 9 9 9
15 15 17 17 18 19 16 16 16 13 14 14 13 12 12 12 11 10 9 10 9 9 8 7 9 9 9 8 8 8 8 8 8 8 7 6 6 6 7 8 8 8 8 9 9 9 9 9 8
15 15 18 15 16 16 16 17 16 14 14 13 12 12 12 12 10 11 10 9 9 9 8 7 10 9 9 9 8 8 8 8 8 8 7 6 7 7 7 8 9 9 9 9 9 9 9 9 9
15 15 17 16 16 17 14 16 15 14 14 13 12 12 11 12 11 10 10 9 10 9 8 8 9 9 8 9 8 8 8 9 8 8 8 8 6 8 7 8 9 9 9 9 9 9 9 9 9
15 16 16 17 16 16 18 17 17 14 14 14 13 12 11 13 12 11 9 9 10 10 9 8 8 9 9 8 8 8 9 9 8 8 9 8 7 7 8 8 9 9 9 8 9 8 8 9 9
15 15 16 16 17 19 18 18 17 16 14 14 13 12 11 10 11 12 11 9 9 9 8 8 8 8 9 9 8 8 8 9 8 8 8 9 9 9 8 9 9 8 8 9 9 9 8 9 8
15 16 16 17 16 17 17 16 15 15 14 13 12 10 10 12 11 11 11 11 10 9 9 10 9 9 9 8 9 8 8 8 9 8 9 9 9 9 9 9 9 8 9 9 9 8 9 9 9

GFSSGP_700_temp_165.txt.gz
Temp
11 10 11 11 11 11 12 12 13 12 12 12 12 12 12 11 11 10 10 10 9 9 9 9 10 9 9 9 9 9 9 9 9 9 9 9 9 9 9 9 9 9 9 9 9 9 9 9 9
11 10 10 11 11 11 13 14 13 12 12 12 12 12 11 11 10 11 10 9 9 9 8 9 9 9 9 9 9 9 9 9 9 9 9 9 9 9 9 9 9 9 9 9 9 9 10 9 9
11 10 9 10 9 12 14 14 13 12 11 12 11 10 10 10 10 10 8 9 9 9 8 8 9 9 9 9 9 9 9 9 9 10 9 9 9 9 9 9 9 9 10 9 10 10 9 10 10
11 10 9 11 11 12 14 14 13 13 12 11 11 11 10 8 9 10 9 9 8 8 8 8 9 9 9 9 9 9 9 9 9 10 10 9 9 9 10 10 10 10 10 10 10 10 10 10 10
11 10 9 9 9 11 12 13 13 12 11 11 12 9 9 8 9 9 9 9 8 8 8 8 9 9 9 9 9 9 9 9 10 10 10 10 9 9 10 10 10 10 10 10 10 10 10 10 9
10 10 9 9 8 10 13 13 13 12 11 11 11 10 8 8 8 7 8 8 8 8 8 8 9 9 9 9 9 9 9 9 9 10 10 10 9 9 9 9 9 10 10 10 10 10 10 10 9
10 10 9 9 11 10 13 13 13 12 11 11 11 10 8 8 8 8 8 8 8 9 9 8 9 9 9 9 9 9 9 9 9 9 9 9 9 9 9 9 10 10 10 10 10 10 10 9 9
10 10 10 9 9 9 12 12 12 12 11 10 11 9 8 8 8 8 8 8 8 8 8 8 8 8 9 9 9 8 9 9 9 9 10 10 10 9 9 9 10 10 10 10 10 10 9 9 8
10 11 11 11 10 10 10 12 12 12 11 10 10 10 9 8 8 8 8 8 9 7 7 8 8 9 9 8 8 8 9 9 9 9 9 10 9 10 9 9 9 10 10 10 10 10 9 8 8
11 11 11 11 11 11 10 11 11 12 11 10 9 9 8 7 8 8 8 8 8 7 8 8 8 9 8 8 8 8 8 8 9 9 9 9 9 9 9 9 9 10 10 10 10 9 8 8 9
13 12 11 10 10 10 11 11 11 10 11 11 11 9 9 7 8 8 8 8 8 8 9 8 9 9 8 8 7 7 8 8 8 8 9 8 9 9 9 9 9 10 9 10 10 9 8 10 8
13 12 11 11 10 10 11 11 10 10 10 10 11 10 9 8 8 8 9 9 9 8 9 8 9 8 8 8 7 7 8 8 8 8 8 9 9 8 8 9 9 9 9 10 10 9 8 9 8
13 12 11 11 9 9 10 10 10 9 10 8 10 9 9 9 8 8 8 9 8 8 8 9 9 8 8 9 8 8 8 7 8 8 8 9 9 8 8 9 9 9 9 9 10 9 9 8 8
12 12 10 11 10 10 10 10 9 9 9 9 10 9 9 8 9 8 8 9 8 8 9 9 9 8 9 9 9 8 8 8 8 7 8 9 8 8 7 8 8 8 9 9 9 8 8 8 8
11 13 11 10 9 10 9 10 10 10 10 10 10 10 9 9 9 8 8 9 9 8 9 9 9 9 9 9 8 8 9 9 7 7 7 7 8 8 8 8 9 9 9 9 8 8 8 8 8
10 12 12 10 9 10 10 10 10 11 10 9 9 10 9 9 9 9 9 8 8 8 8 9 10 10 9 9 9 9 9 9 8 8 7 7 8 8 8 9 8 8 8 8 8 8 8 8 8
12 12 12 10 10 10 10 11 11 11 10 10 10 10 10 9 9 9 9 8 9 9 8 10 10 9 9 10 9 8 8 9 7 6 7 7 8 9 9 8 8 9 9 8 8 8 8 8 8
13 13 13 11 12 11 10 11 12 11 10 10 9 9 9 9 9 9 9 8 8 8 8 8 9 8 9 10 10 9 8 7 8 7 7 9 8 8 9 9 9 9 8 8 8 9 8 8 8
14 14 13 12 13 10 11 11 11 11 11 10 10 9 10 10 9 9 9 8 8 8 8 9 9 9 8 9 9 9 9 8 8 7 7 9 8 9 9 9 9 8 8 8 9 9 9 9 8
15 14 13 13 12 10 10 10 10 10 10 10 10 9 10 9 10 9 9 8 8 9 8 8 9 9 9 8 9 8 8 7 8 7 7 9 9 9 8 8 8 9 8 9 9 8 9 9 9
15 15 14 14 13 10 11 11 11 10 10 9 10 10 10 10 10 10 9 8 8 10 9 9 9 9 8 8 8 8 8 8 9 8 7 9 9 8 9 9 9 9 9 9 9 10 9 9 9
15 15 15 15 14 13 13 10 11 11 11 11 10 10 10 10 9 10 9 9 9 10 9 10 9 8 9 8 8 9 9 7 8 8 8 8 8 9 9 9 9 9 10 9 9 10 10 9 9
15 16 15 16 16 16 14 13 12 12 12 12 12 11 10 10 10 10 10 9 9 8 8 8 9 8 8 8 9 9 9 8 7 7 7 8 8 9 9 9 9 9 10 9 9 9 9 9 9
15 15 16 16 16 14 16 15 12 13 14 13 13 13 11 10 11 11 10 10 9 9 8 9 9 9 8 8 8 9 8 8 8 8 9 8 8 9 9 9 9 9 9 9 10 10 9 9 10
15 15 15 13 13 13 15 14 14 14 13 14 14 13 13 11 11 11 10 11 10 10 9 9 10 10 9 8 8 9 8 8 9 9 9 9 8 8 8 9 9 9 9 9 9 9 9 9 9
15 15 15 12 11 13 14 11 11 14 14 13 13 14 13 11 11 11 10 10 11 10 10 10 10 9 9 8 9 9 8 8 9 9 9 9 8 8 8 9 9 9 9 9 9 9 9 10 9
15 16 16 16 14 13 14 13 14 14 13 13 13 13 12 11 11 11 11 11 10 10 10 9 10 9 9 8 9 9 9 8 9 9 9 9 8 9 10 10 10 10 10 9 9 9 10 10 9
15 16 16 16 10 11 12 13 14 14 13 13 12 12 12 11 10 10 10 11 10 10 10 10 10 10 10 9 9 9 9 9 9 9 9 9 8 8 10 10 10 10 11 11 10 9 9 10 10
16 16 16 16 17 11 9 12 14 13 10 13 13 12 13 12 12 11 11 10 10 9 9 10 9 10 10 9 9 9 10 10 9 9 9 9 9 9 9 9 9 10 10 10 10 10 9 10 10
16 16 16 16 16 17 16 13 15 13 11 14 13 13 12 12 13 13 11 10 10 10 9 9 9 10 10 9 9 9 9 10 10 10 10 9 9 10 10 9 9 9 9 10 10 10 9 10 10

GFSSGP_700_temp_168.txt.gz
Temp
11 11 11 12 12 12 12 11 12 12 12 12 12 11 11 11 10 11 10 10 9 9 9 9 9 10 10 10 9 9 10 10 10 10 10 9 9 9 9 9 9 9 9 9 9 9 9 9 9
10 11 11 12 12 11 12 12 11 12 12 12 12 11 11 11 11 11 11 10 9 9 9 9 9 10 10 10 9 9 10 10 10 10 10 9 9 9 9 9 9 9 9 9 9 9 9 9 9
10 11 12 12 12 11 11 12 12 12 12 12 12 11 11 11 10 10 10 10 9 9 9 9 9 9 10 10 10 10 10 10 10 10 10 9 9 9 9 9 9 9 9 9 10 9 9 9 9
10 11 11 11 12 11 11 10 10 11 11 11 11 11 10 9 9 9 10 10 9 9 9 9 9 9 9 9 9 9 10 10 10 10 10 10 10 10 9 9 9 9 10 10 10 9 9 9 9
10 10 10 11 11 11 10 10 10 12 12 11 11 10 11 9 8 9 9 9 9 9 8 9 9 9 9 9 9 10 9 10 10 10 10 10 10 10 9 9 9 10 10 10 9 9 9 8 8
10 10 10 9 9 10 9 10 9 12 12 12 11 11 10 7 8 8 8 8 8 8 8 8 8 9 9 9 9 10 10 9 10 10 10 10 10 10 10 9 10 10 10 10 9 9 8 8 8
9 8 9 8 10 11 10 10 9 12 12 12 11 11 9 8 8 8 8 8 8 8 8 8 8 9 9 9 9 9 10 10 10 10 9 9 9 9 9 9 10 10 10 9 9 9 8 8 8
8 9 9 9 10 11 10 10 10 11 11 11 10 11 10 9 8 8 8 9 9 9 9 9 9 9 9 8 8 9 9 9 9 9 9 9 9 9 9 9 10 10 9 9 9 8 8 8 9
9 10 11 10 10 11 11 10 9 10 12 10 10 11 10 9 8 8 9 8 9 9 9 9 9 9 9 8 8 8 9 9 9 9 9 9 9 9 9 9 9 9 9 9 9 8 8 9 9
10 11 11 11 11 10 10 9 10 9 10 10 11 10 10 8 8 8 8 8 9 9 9 9 9 9 9 8 8 8 8 9 9 9 9 9 10 9 9 9 9 9 8 9 8 8 9 9 9
11 12 12 11 10 10 9 9 10 9 9 11 11 11 10 8 8 8 9 8 9 9 9 9 9 9 8 7 7 8 8 8 8 8 8 8 9 9 9 9 9 9 8 9 9 9 10 9 8
12 12 12 11 10 10 9 10 10 10 9 10 10 10 10 9 8 8 9 9 9 9 9 9 8 8 8 6 6 7 7 7 7 8 8 8 9 9 9 9 9 9 8 9 9 9 10 9 9
12 12 11 10 9 10 10 9 9 10 9 8 9 10 10 9 8 8 8 9 9 8 9 8 8 8 7 7 7 7 7 6 7 7 8 8 8 9 9 9 9 9 8 9 9 9 9 9 9
12 12 9 9 10 9 10 9 9 9 9 9 8 9 9 9 8 8 9 9 9 9 8 9 9 9 7 7 7 7 7 7 8 8 9 9 9 9 9 9 9 9 9 9 9 9 9 9 9
11 11 10 12 11 9 9 9 9 9 10 9 9 9 9 8 8 9 9 9 8 9 9 8 9 9 8 8 8 8 8 8 9 9 9 9 9 9 9 9 9 10 9 9 9 10 9 9 9
12 12 11 12 12 10 10 9 9 9 9 9 9 9 9 8 9 9 9 9 9 9 9 9 9 9 8 8 8 8 9 9 9 9 9 8 9 10 9 9 9 9 9 9 8 9 9 8 8
12 12 11 12 12 10 10 9 9 9 9 9 9 9 9 9 9 9 9 9 9 9 9 9 9 9 8 8 8 8 9 9 9 9 9 8 9 9 9 8 9 9 9 10 10 8 8 8 8
13 12 12 12 11 10 10 10 9 9 9 9 9 9 9 9 9 9 9 9 9 9 9 9 9 9 9 8 8 8 8 9 9 10 10 9 9 10 9 9 9 9 9 9 9 8 9 8 8
13 13 13 12 12 11 11 10 10 10 9 9 9 10 9 9 9 9 9 9 9 9 9 9 9 9 10 9 9 9 9 9 9 10 10 9 8 8 9 9 9 8 9 9 9 8 8 8 8
13 14 13 13 12 11 10 12 12 11 11 10 9 9 9 9 9 8 9 10 9 9 9 9 9 9 9 9 8 8 8 9 8 9 9 8 9 9 9 9 9 9 9 9 9 9 8 10 9
13 14 14 13 12 11 10 11 11 12 11 10 10 9 9 9 9 9 9 10 10 9 9 9 9 9 9 9 8 8 8 9 8 9 8 8 8 9 8 9 9 10 9 9 9 9 8 10 9
14 15 14 13 13 12 11 11 12 12 12 10 11 11 10 10 9 9 10 10 10 10 8 9 9 9 8 8 8 8 8 9 9 9 9 8 8 9 9 9 9 9 10 10 9 9 9 9 10
15 15 15 13 14 13 12 10 14 13 14 13 12 11 11 10 10 10 10 10 10 9 9 9 8 8 9 8 8 8 8 8 8 8 7 8 9 10 9 9 9 9 9 9 9 10 9 9 9
15 15 15 15 14 13 13 13 13 14 15 14 12 12 11 11 10 10 10 10 10 10 10 9 10 9 9 9 8 8 8 8 9 8 8 8 8 8 9 9 9 9 9 9 9 9 9 9 9
15 15 14 12 12 11 14 13 14 14 14 14 13 12 12 12 10 10 10 10 10 10 10 9 9 9 9 9 8 8 8 8 8 9 8 8 8 8 8 8 9 9 9 9 9 9 9 9 9
15 15 14 12 9 12 14 14 14 14 13 14 14 12 12 12 11 11 10 10 11 11 10 9 9 10 10 9 9 9 8 8 8 8 8 9 8 8 8 8 9 9 9 9 9 10 9 9 10
15 15 15 15 13 12 14 14 14 14 14 14 14 13 12 12 12 11 11 11 11 11 10 9 9 9 9 9 9 9 8 8 8 8 8 8 8 8 8 9 9 8 8 9 9 9 10 10 10
15 15 15 14 9 10 12 12 14 14 14 14 14 13 13 13 12 12 11 10 11 11 10 9 10 9 9 9 10 10 9 8 8 8 8 8 8 7 8 9 9 9 9 9 9 9 10 10 9
15 15 15 15 15 9 8 13 15 15 14 14 14 13 13 13 12 11 11 11 11 11 10 10 10 9 9 9 9 10 10 9 8 8 8 8 8 8 8 8 8 8 9 9 9 9 9 9 9
16 16 16 15 15 15 14 14 15 14 14 14 13 13 12 12 12 11 11 11 12 12 11 10 10 10 10 9 9 9 10 9 9 9 9 8 8 8 8 8 8 8 8 8 9 9 9 9 9

GFSSGP_700_temp_171.txt.gz
Temp
11 12 11 12 11 11 11 11 12 12 11 11 11 11 11 11 11 11 11 10 10 9 9 9 9 9 9 9 9 9 9 9 9 9 8 8 8 8 8 8 8 8 9 9 9 8 8 9 8
11 12 11 11 12 11 11 11 12 12 12 12 10 11 11 11 11 11 11 10 9 9 9 9 9 9 9 9 9 9 9 9 9 9 9 9 9 9 9 8 8 9 9 9 9 9 9 9 8
11 11 11 12 12 10 9 9 11 11 11 11 12 11 11 11 11 11 11 10 10 10 10 9 9 9 9 9 9 9 9 9 9 9 9 9 9 9 9 8 9 9 9 9 9 9 9 8 8
10 10 11 12 12 11 9 9 10 11 11 11 11 11 11 11 10 10 10 10 10 9 9 9 9 9 9 9 9 9 9 9 9 9 9 9 9 9 9 9 9 9 9 9 9 9 8 8 7
10 10 10 11 11 10 9 10 9 9 11 11 11 11 11 11 10 9 9 9 9 9 9 9 9 9 9 9 9 9 9 9 9 9 9 9 9 9 9 9 9 9 9 9 9 8 8 7 7
11 10 10 9 10 10 10 9 10 10 11 11 11 11 11 10 9 9 9 9 9 8 8 9 9 9 9 9 9 9 9 9 9 9 9 9 9 9 9 9 9 10 10 9 8 8 8 7 8
11 10 9 9 10 10 9 9 10 10 11 11 11 11 11 9 9 9 9 9 9 8 8 8 9 9 8 9 8 9 8 8 9 9 9 9 9 9 9 9 10 10 9 9 8 9 8 8 8
11 10 10 10 10 9 9 9 10 9 11 11 10 10 10 10 9 9 9 9 8 8 8 8 8 8 8 8 8 8 9 9 9 9 9 9 9 9 9 9 10 10 9 9 9 9 9 8 8
11 10 10 11 11 10 10 10 9 10 10 10 10 10 10 10 10 9 9 9 9 8 8 8 8 8 8 8 8 8 8 8 8 9 9 9 9 9 9 9 10 10 9 9 9 9 8 8 8
11 11 11 12 11 10 9 9 9 10 10 11 11 10 10 10 10 9 9 9 8 8 8 8 8 8 8 8 7 8 8 8 8 8 9 10 9 9 9 9 9 9 9 9 9 8 8 8 8
11 10 11 11 11 10 10 9 10 9 11 10 11 10 10 10 10 9 9 9 8 8 8 8 8 8 7 7 7 8 7 8 8 8 9 9 9 9 9 9 9 9 8 9 9 9 8 8 8
10 10 10 11 10 10 9 9 9 9 10 9 9 10 10 10 9 9 9 9 9 8 8 8 8 8 8 7 7 7 7 8 7 8 8 9 9 9 9 9 9 9 9 9 9 8 9 9 8
11 12 12 11 11 10 9 9 9 10 9 9 10 9 9 9 9 8 8 9 9 8 8 8 8 8 7 7 6 6 7 7 7 7 7 8 9 9 9 10 9 9 8 9 9 9 8 8 9
12 12 12 10 10 10 10 9 8 9 10 9 9 9 9 9 9 9 9 9 8 8 9 8 8 8 6 6 6 6 6 7 7 7 7 8 9 9 9 10 10 9 9 9 9 8 8 9 9
12 11 11 10 9 9 9 9 8 8 9 9 9 9 9 9 9 9 8 9 8 8 9 8 8 8 7 7 7 7 7 7 7 7 8 8 8 9 9 9 10 10 9 9 9 9 9 9 9
11 11 12 11 10 10 9 9 9 8 8 9 9 8 9 9 9 9 8 9 9 8 9 9 8 8 8 8 8 8 8 8 8 8 8 8 8 9 9 10 10 9 9 9 9 9 9 9 9
12 12 12 11 10 10 9 9 9 9 8 8 9 8 8 8 8 8 9 9 8 8 8 8 8 8 8 8 9 9 8 8 8 8 8 8 8 8 9 9 9 9 9 10 10 10 9 10 10
13 12 12 11 11 10 10 10 10 10 10 10 9 9 8 8 9 9 9 9 8 8 8 9 9 8 8 9 8 9 9 9 9 8 8 8 8 8 8 9 9 9 9 10 10 10 9 9 9
12 12 12 12 11 10 10 9 9 10 10 10 10 9 9 9 9 9 9 9 9 8 9 8 9 9 9 9 9 9 9 9 9 9 8 8 8 8 8 9 9 9 9 10 10 10 10 10 10
12 12 12 12 12 11 12 11 10 10 10 10 10 10 9 9 9 9 9 9 9 9 9 8 8 8 9 9 8 8 8 9 9 9 8 9 8 8 8 9 8 8 8 9 10 10 10 9 10
13 13 12 13 13 12 12 12 12 10 10 10 10 9 10 10 10 9 10 10 9 10 9 9 8 8 8 8 9 8 9 9 9 9 9 9 8 8 9 8 8 8 9 9 9 9 9 10 10
13 14 13 12 13 11 11 11 13 12 11 12 10 10 10 10 10 10 11 11 10 10 10 10 9 8 8 8 9 9 9 9 9 9 8 8 8 8 8 8 8 8 8 8 9 9 9 9 10
14 14 14 13 13 12 11 10 13 13 13 13 13 11 10 10 10 10 11 10 10 9 9 9 9 9 8 8 8 8 9 9 9 9 9 9 8 8 8 8 8 8 8 9 9 9 9 10 9
14 14 14 12 12 11 13 11 14 14 14 13 13 12 11 9 10 10 10 9 9 9 9 9 9 9 8 8 8 8 9 9 9 9 9 9 9 9 9 9 9 9 10 9 9 9 9 9 9
14 14 13 11 9 9 14 11 15 15 14 14 14 13 12 11 9 10 10 10 10 10 9 9 9 9 8 9 9 9 8 8 8 9 9 9 9 10 9 9 9 9 9 9 9 9 9 9 9
14 15 14 10 9 11 12 12 15 15 14 14 14 13 12 12 11 11 11 11 10 10 10 9 9 8 8 8 9 9 9 8 8 8 8 8 8 9 10 10 9 9 9 9 9 9 9 9 9
15 14 14 14 11 11 14 15 15 16 15 15 14 14 14 13 11 12 11 11 11 11 11 9 9 9 9 9 8 9 9 9 9 8 8 8 8 8 9 9 9 8 8 9 9 8 9 9 9
14 15 14 14 9 10 12 12 15 16 15 15 14 14 13 12 12 12 11 11 11 11 10 10 9 9 9 8 8 8 9 9 9 8 9 9 8 8 8 9 9 9 8 9 9 8 9 9 9
15 14 15 14 14 9 8 13 16 16 15 14 14 14 14 13 13 12 12 11 11 11 10 10 9 9 9 8 9 9 9 9 9 9 9 9 9 8 8 8 9 8 9 9 9 9 9 9 9
15 15 15 14 14 13 12 14 16 15 14 14 14 14 14 14 13 13 13 12 11 11 11 11 10 9 9 9 8 8 8 9 9 9 9 9 9 8 8 8 7 8 8 8 8 8 8 9 9